Meteo orario Abasolo

Oggi, 27 Febbraio, Sabato

Tempo Temperatura Precipitazioni Vento Pressione Umidità
00:00 +22°C° 0 mm 4 m/s 753 mm Hg 93%
01:00 +21°C° 0 mm 3 m/s 752 mm Hg 94%
02:00 +21°C° 0 mm 3 m/s 752 mm Hg 94%
03:00 +21°C° 0 mm 3 m/s 752 mm Hg 93%
04:00 +21°C° 0 mm 3 m/s 752 mm Hg 91%
05:00 +21°C° 0 mm 3 m/s 752 mm Hg 90%
06:00 +22°C° 0 mm 4 m/s 752 mm Hg 84%
07:00 +25°C° 0 mm 4 m/s 752 mm Hg 78%
08:00 +26°C° 0 mm 5 m/s 752 mm Hg 71%
09:00 +28°C° 0 mm 6 m/s 752 mm Hg 64%
10:00 +30°C° 0 mm 7 m/s 752 mm Hg 58%
11:00 +33°C° 0 mm 7 m/s 752 mm Hg 51%
12:00 +33°C° 0 mm 8 m/s 751 mm Hg 50%
13:00 +34°C° 0 mm 8 m/s 751 mm Hg 49%
14:00 +34°C° 0 mm 8 m/s 750 mm Hg 48%
15:00 +33°C° 0 mm 8 m/s 750 mm Hg 54%
16:00 +31°C° 0 mm 8 m/s 750 mm Hg 60%
17:00 +29°C° 0 mm 8 m/s 751 mm Hg 66%
18:00 +27°C° 0 mm 7 m/s 751 mm Hg 73%
19:00 +26°C° 0 mm 6 m/s 752 mm Hg 80%
20:00 +24°C° 0 mm 6 m/s 752 mm Hg 88%
21:00 +23°C° 0 mm 5 m/s 752 mm Hg 90%
22:00 +23°C° 0 mm 4 m/s 753 mm Hg 92%
23:00 +22°C° 0 mm 4 m/s 753 mm Hg 94%

Domani, 28 Febbraio, Domenica

Tempo Temperatura Precipitazioni Vento Pressione Umidità
00:00 +22°C° 0 mm 4 m/s 752 mm Hg 94%
01:00 +22°C° 0 mm 3 m/s 752 mm Hg 94%
02:00 +21°C° 0 mm 3 m/s 751 mm Hg 94%
03:00 +21°C° 0 mm 3 m/s 751 mm Hg 93%
04:00 +21°C° 0 mm 3 m/s 751 mm Hg 92%
05:00 +21°C° 0 mm 4 m/s 751 mm Hg 92%
06:00 +23°C° 0 mm 4 m/s 752 mm Hg 85%
07:00 +25°C° 0 mm 5 m/s 752 mm Hg 78%
08:00 +27°C° 0 mm 5 m/s 752 mm Hg 71%
09:00 +29°C° 0 mm 5 m/s 752 mm Hg 63%
10:00 +32°C° 0 mm 4 m/s 752 mm Hg 56%
11:00 +33°C° 0 mm 4 m/s 752 mm Hg 49%
12:00 +34°C° 0 mm 4 m/s 752 mm Hg 49%
13:00 +34°C° 0 mm 5 m/s 751 mm Hg 48%
14:00 +35°C° 0 mm 5 m/s 750 mm Hg 48%
15:00 +33°C° 0 mm 5 m/s 750 mm Hg 54%
16:00 +32°C° 0 mm 6 m/s 750 mm Hg 59%
17:00 +30°C° 0 mm 6 m/s 751 mm Hg 65%
18:00 +28°C° 0 mm 5 m/s 751 mm Hg 74%
19:00 +26°C° 0 mm 5 m/s 752 mm Hg 82%
20:00 +25°C° 0 mm 4 m/s 752 mm Hg 91%
21:00 +23°C° 0 mm 4 m/s 752 mm Hg 92%
22:00 +24°C° 0 mm 3 m/s 752 mm Hg 94%
23:00 +24°C° 0 mm 3 m/s 753 mm Hg 95%

Dopodomani, 1 Marzo, Lunedi

Tempo Temperatura Precipitazioni Vento Pressione Umidità
00:00 +23°C° 0 mm 2 m/s 752 mm Hg 96%
01:00 +23°C° 0 mm 1 m/s 752 mm Hg 96%
02:00 +23°C° 0 mm 1 m/s 752 mm Hg 97%
03:00 +22°C° 0 mm 1 m/s 752 mm Hg 97%
04:00 +22°C° 0 mm 1 m/s 753 mm Hg 97%
05:00 +22°C° 0 mm 1 m/s 753 mm Hg 98%
06:00 +23°C° 0 mm 1 m/s 754 mm Hg 92%
07:00 +25°C° 0 mm 1 m/s 754 mm Hg 86%
08:00 +26°C° 0 mm 1 m/s 755 mm Hg 80%
09:00 +27°C° 0 mm 1 m/s 755 mm Hg 73%
10:00 +29°C° 0 mm 2 m/s 756 mm Hg 66%
11:00 +30°C° 0 mm 2 m/s 756 mm Hg 59%
12:00 +28°C° 0.9 mm 5 m/s 756 mm Hg 64%
13:00 +24°C° 0.9 mm 8 m/s 756 mm Hg 68%
14:00 +22°C° 0.9 mm 10 m/s 756 mm Hg 73%
15:00 +19°C° 0.2 mm 9 m/s 757 mm Hg 70%
16:00 +18°C° 0.2 mm 8 m/s 758 mm Hg 67%
17:00 +16°C° 0.2 mm 7 m/s 759 mm Hg 64%
18:00 +17°C° 0 mm 7 m/s 760 mm Hg 60%
19:00 +17°C° 0 mm 6 m/s 761 mm Hg 56%
20:00 +19°C° 0 mm 5 m/s 762 mm Hg 52%
21:00 +19°C° 0 mm 5 m/s 762 mm Hg 52%
22:00 +19°C° 0 mm 5 m/s 762 mm Hg 51%
23:00 +19°C° 0 mm 5 m/s 762 mm Hg 51%

2 Marzo, Martedi

Tempo Temperatura Precipitazioni Vento Pressione Umidità
00:00 +17°C° 0 mm 5 m/s 761 mm Hg 51%
01:00 +17°C° 0 mm 5 m/s 761 mm Hg 52%
02:00 +16°C° 0 mm 6 m/s 761 mm Hg 52%
03:00 +16°C° 0 mm 5 m/s 761 mm Hg 54%
04:00 +16°C° 0 mm 5 m/s 761 mm Hg 55%
05:00 +15°C° 0 mm 5 m/s 761 mm Hg 56%
06:00 +15°C° 0.1 mm 5 m/s 762 mm Hg 58%
07:00 +15°C° 0.1 mm 4 m/s 762 mm Hg 59%
08:00 +15°C° 0.1 mm 4 m/s 763 mm Hg 60%
09:00 +16°C° 0.1 mm 3 m/s 762 mm Hg 61%
10:00 +16°C° 0.1 mm 3 m/s 762 mm Hg 61%
11:00 +17°C° 0.1 mm 3 m/s 762 mm Hg 61%
12:00 +17°C° 0 mm 3 m/s 761 mm Hg 61%
13:00 +17°C° 0 mm 3 m/s 760 mm Hg 61%
14:00 +18°C° 0 mm 2 m/s 759 mm Hg 61%
15:00 +18°C° 0 mm 2 m/s 759 mm Hg 64%
16:00 +18°C° 0 mm 2 m/s 759 mm Hg 66%
17:00 +17°C° 0 mm 2 m/s 759 mm Hg 68%
18:00 +17°C° 0 mm 2 m/s 759 mm Hg 70%
19:00 +18°C° 0 mm 1 m/s 759 mm Hg 73%
20:00 +16°C° 0 mm 1 m/s 760 mm Hg 75%
21:00 +16°C° 0 mm 1 m/s 759 mm Hg 75%
22:00 +16°C° 0 mm 1 m/s 759 mm Hg 75%
23:00 +18°C° 0 mm 1 m/s 759 mm Hg 75%

3 Marzo, Mercoledi

Tempo Temperatura Precipitazioni Vento Pressione Umidità
00:00 +18°C° 0 mm 1 m/s 758 mm Hg 77%
01:00 +16°C° 0 mm 0 m/s 758 mm Hg 79%
02:00 +16°C° 0 mm 0 m/s 757 mm Hg 81%
03:00 +15°C° 0 mm 0 m/s 757 mm Hg 84%
04:00 +15°C° 0 mm 0 m/s 757 mm Hg 87%
05:00 +15°C° 0 mm 0 m/s 757 mm Hg 91%
06:00 +18°C° 0 mm 1 m/s 757 mm Hg 85%
07:00 +20°C° 0 mm 1 m/s 757 mm Hg 79%
08:00 +21°C° 0 mm 2 m/s 758 mm Hg 73%
09:00 +25°C° 0 mm 3 m/s 757 mm Hg 65%
10:00 +27°C° 0 mm 4 m/s 757 mm Hg 58%
11:00 +29°C° 0 mm 4 m/s 757 mm Hg 50%
12:00 +30°C° 0 mm 5 m/s 756 mm Hg 50%
13:00 +30°C° 0 mm 5 m/s 755 mm Hg 50%
14:00 +30°C° 0 mm 6 m/s 754 mm Hg 50%
15:00 +29°C° 0 mm 6 m/s 754 mm Hg 54%
16:00 +28°C° 0 mm 6 m/s 754 mm Hg 58%
17:00 +27°C° 0 mm 6 m/s 754 mm Hg 62%
18:00 +25°C° 0 mm 5 m/s 755 mm Hg 70%
19:00 +23°C° 0 mm 4 m/s 755 mm Hg 77%
20:00 +21°C° 0 mm 3 m/s 756 mm Hg 85%
21:00 +21°C° 0 mm 3 m/s 756 mm Hg 87%
22:00 +21°C° 0 mm 3 m/s 756 mm Hg 89%
23:00 +20°C° 0 mm 3 m/s 756 mm Hg 91%

4 Marzo, Giovedi

Tempo Temperatura Precipitazioni Vento Pressione Umidità
00:00 +20°C° 0 mm 2 m/s 755 mm Hg 91%
01:00 +21°C° 0 mm 1 m/s 755 mm Hg 92%
02:00 +20°C° 0 mm 1 m/s 755 mm Hg 92%
03:00 +20°C° 0 mm 1 m/s 755 mm Hg 93%
04:00 +18°C° 0 mm 0 m/s 755 mm Hg 93%
05:00 +18°C° 0 mm 0 m/s 755 mm Hg 94%
06:00 +19°C° 0 mm 0 m/s 756 mm Hg 87%
07:00 +23°C° 0 mm 1 m/s 756 mm Hg 80%
08:00 +24°C° 0 mm 1 m/s 756 mm Hg 74%
09:00 +26°C° 0 mm 2 m/s 756 mm Hg 66%
10:00 +28°C° 0 mm 2 m/s 756 mm Hg 58%
11:00 +30°C° 0 mm 3 m/s 755 mm Hg 50%
12:00 +31°C° 0 mm 3 m/s 754 mm Hg 48%
13:00 +33°C° 0 mm 3 m/s 754 mm Hg 46%
14:00 +34°C° 0 mm 4 m/s 753 mm Hg 44%
15:00 +33°C° 0 mm 4 m/s 753 mm Hg 48%
16:00 +32°C° 0 mm 4 m/s 753 mm Hg 51%
17:00 +30°C° 0 mm 4 m/s 753 mm Hg 55%
18:00 +28°C° 0 mm 4 m/s 754 mm Hg 63%
19:00 +26°C° 0 mm 3 m/s 755 mm Hg 72%
20:00 +24°C° 0 mm 3 m/s 755 mm Hg 80%
21:00 +23°C° 0 mm 2 m/s 756 mm Hg 84%
22:00 +23°C° 0 mm 1 m/s 756 mm Hg 88%
23:00 +20°C° 0 mm 0 m/s 756 mm Hg 91%
Mostrare altro

Abbiamo bisogno del tuo consenso

Meteoprog e i nostri fornitori di servizi possono memorizzare e accedere a dati personali come cookie, identificatori di dispositivi o altre tecnologie simili sul tuo dispositivo e possono elaborare tali dati per personalizzare i contenuti e gli annunci, nonché fornire funzionalità dei social media e analizzarne il traffico.

  • Archiviare e/o accedere alle informazioni sul tuo dispositivo

    Cookie, identificatori di dispositivi o altre informazioni possono essere memorizzati o resi accessibili sul tuo dispositivo per le finalità sopra indicate.

  • Annunci e contenuti personalizzati, misurazione di annunci e contenuti, approfondimenti sul pubblico e sviluppo di prodotti

    Gli annunci e i contenuti possono essere personalizzati in base a un profilo. È possibile aggiungere più dati per personalizzare meglio annunci e contenuti. È possibile misurare il rendimento degli annunci e dei contenuti. È possibile ricavare informazioni sul pubblico che ha visto gli annunci e i contenuti. Tali dati possono essere utilizzati per sviluppare o migliorare l'esperienza, i sistemi e il software dell'utente.

Cliccando su “Accetto”, acconsenti all'uso di cookie, identificatori di dispositivo, web beacon o altre tecnologie simili. Puoi modificare le impostazioni nel browser del tuo dispositivo.

Per determinati scopi, è possibile fare affidamento su interessi legali, piuttosto che sul consenso. Puoi approfondire questo argomento consultando la nostra Informativa sulla privacy e sui cookie.